Weather Roundup
Issued by NWS Chicago, IL

Home | Current Version | Previous Version | Graphics & Text | Print | Product List | Glossary On
Versions: 1 2 3 4 5 6 7 8 9 10 11 12 13 14 15 16 17 18 19 20 21 22 23 24 25 26 27 28 29 30 31 32 33 34 35 36 37 38 39 40 41 42 43 44 45 46 47 48 49 50
411
NZUS59 KLOT 040703
HRRLOT

CHICAGO AREA WEATHER ROUNDUP
NATIONAL WEATHER SERVICE CHICAGO/ROMEOVILLE IL
200 AM CDT WED MAY 04 2016

NOTE: "FAIR" INDICATES FEW OR NO CLOUDS BELOW 12,000 FEET WITH NO
SIGNIFICANT WEATHER AND/OR OBSTRUCTIONS TO VISIBILITY.

* THESE STATIONS ARE NOT UNDER NWS QUALITY CONTROL. THEY ALSO MAY NOT
  REPORT WEATHER SUCH AS PRECIPITATION OR FOG.

ILZ005-006-012>014-019>023-040800-
NORTHEAST ILLINOIS

CITY           SKY/WX    TMP DP  RH WIND       PRES   REMARKS
OHARE          RAIN      51  47  86 N13       29.66R FOG
MIDWAY         LGT RAIN  55  46  71 SW15G26   29.64S
AURORA         RAIN      50  47  89 N14       29.68R FOG
LANSING*       RAIN      54  46  74 W20G26    29.66F
WAUKEGAN       LGT RAIN  50  47  89 NW5       29.64S
DUPAGE AIRPORT RAIN      50  46  86 NW10      29.67R
WHEELING       RAIN      51  47  86 NW6       29.66S FOG
MORRIS*        LGT RAIN  53  46  76 NW15G32   29.66R
$$

WIZ051-052-058>065-066-070>072-040800-
SOUTHEAST WISCONSIN

CITY           SKY/WX    TMP DP  RH WIND       PRES   REMARKS
MILWAUKEE      CLOUDY    49  46  90 NE7       29.64S
KENOSHA*       RAIN      50  47  89 CALM      29.64S FOG
RACINE*        LGT RAIN  48  45  89 N7        29.65S
BURLINGTON     CLOUDY    47  47  98 CALM      29.65R
$$

INZ001>003-010>013-019-020-040800-
NORTHWEST INDIANA

CITY           SKY/WX    TMP DP  RH WIND       PRES   REMARKS
GARY*          NOT AVBL
MICHIGAN CITY* NOT AVBL
RENSSELAER*    NOT AVBL
VALPARAISO     CLOUDY    55  41  59 SW16      29.66F
$$

LMZ740>746-040800-
SOUTHERN LAKE MICHIGAN

STATION/POSITION TIME  SKY/WX   TEMP WIND        PRES    VSBY
                                AIR  DIR/SP/G
                 (UTC)          (F)  (DEG/KT/KT) (MB)    (MI)
HARRISON CRIB    0600            61  220/ 19/ 24   N/A
BURNHAM HARBOR   0700            55  290/ 11/ 13   N/A
CALUMET HARBOR   0600            58  210/ 12/ 17 1003.4F
BURNS HARBOR     0602            59  210/ 16/ 21 1004.7F
MICHIGAN CITY    0600            58  170/ 11/ 17   N/A
$$

ABBREVIATIONS USED IN REMARKS
   TC - TEMPERATURE IN CELSIUS
  WCI - WIND CHILL INDEX
   HX - HEAT INDEX
  VSB - VISIBILITY
$$




USA.gov is the U.S. government's official web portal to all federal, state and local government web resources and services.